,,PA_Meas_PMT16A,,PR_Meas_QMR101_102,,RH_Meas_QMH101,,SR_Meas_QMS101,,TA_Meas_QMH101,,GenWind,,GenWind,
time,status,PA,status,PR,status,RH,status,SR,status,TA,status,DirAvg,status,SpdAvg,
2016-02-09, 16:11:04,VALID,915.886,VALID,0,VALID,100.499,VALID,123.557,VALID,22.9753,VALID,141,VALID,1.7207,
2016-02-09, 16:12:04,VALID,915.893,VALID,0,VALID,101.17,VALID,133.872,VALID,22.9575,VALID,144,VALID,1.7125,
2016-02-09, 16:13:04,VALID,915.948,VALID,0,VALID,101.529,VALID,142.789,VALID,22.8989,VALID,142,VALID,1.71758,
2016-02-09, 16:14:04,VALID,915.919,VALID,0,VALID,101.856,VALID,151.922,VALID,22.8404,VALID,163,VALID,2.15352,
2016-02-09, 16:15:04,VALID,915.934,VALID,0.2,VALID,102.672,VALID,160.732,VALID,22.8226,VALID,141,VALID,0.770312,
2016-02-09, 16:16:04,VALID,915.922,VALID,0,VALID,102.535,VALID,169.542,VALID,22.7428,VALID,137,VALID,2.66914,
2016-02-09, 16:17:04,VALID,915.95,VALID,0,VALID,102.985,VALID,178.997,VALID,22.6825,VALID,120,VALID,2.56484,
2016-02-09, 16:18:04,VALID,915.975,VALID,0,VALID,103.816,VALID,190.815,VALID,22.6843,VALID,146,VALID,1.13555,
2016-02-09, 16:19:04,VALID,915.974,VALID,0.2,VALID,104,VALID,203.708,VALID,22.6045,VALID,141,VALID,1.95742,
2016-02-09, 16:20:04,VALID,915.958,VALID,0,VALID,104,VALID,212.304,VALID,22.6274,VALID,156,VALID,1.65937,
2016-02-09, 16:21:04,VALID,915.971,VALID,0,VALID,104,VALID,209.94,VALID,22.6062,VALID,145,VALID,1.37227,
2016-02-09, 16:22:04,VALID,916.01,VALID,0,VALID,104,VALID,200.485,VALID,22.6062,VALID,119,VALID,0.482422,
2016-02-09, 16:23:04,VALID,916.027,VALID,0,VALID,104,VALID,188.989,VALID,22.6079,VALID,124,VALID,1.44766,
2016-02-09, 16:24:04,VALID,916.075,VALID,0.2,VALID,104,VALID,175.451,VALID,22.5672,VALID,142,VALID,1.7168,
2016-02-09, 16:25:04,VALID,916.059,VALID,0,VALID,104,VALID,165.782,VALID,22.6096,VALID,138,VALID,1.37422,
2016-02-09, 16:26:04,VALID,916.089,VALID,0,VALID,104,VALID,164.063,VALID,22.5867,VALID,136,VALID,1.06094,
2016-02-09, 16:27:04,VALID,916.115,VALID,0,VALID,104,VALID,168.683,VALID,22.5459,VALID,124,VALID,1.01523,
2016-02-09, 16:28:04,VALID,916.101,VALID,0,VALID,104,VALID,175.129,VALID,22.5655,VALID,147,VALID,0.308203,
2016-02-09, 16:29:04,VALID,916.095,VALID,0,VALID,104,VALID,175.881,VALID,22.5867,VALID,152,VALID,0.412891,
2016-02-09, 16:30:04,VALID,916.102,VALID,0,VALID,104,VALID,169.65,VALID,22.5069,VALID,143,VALID,1.33906,
2016-02-09, 16:31:04,VALID,916.098,VALID,0,VALID,104,VALID,158.798,VALID,22.5459,VALID,143,VALID,1.12617,
2016-02-09, 16:32:04,VALID,916.122,VALID,0,VALID,104,VALID,147.732,VALID,22.4874,VALID,138,VALID,1.53945,
2016-02-09, 16:33:04,VALID,916.131,VALID,0,VALID,104,VALID,138.169,VALID,22.5069,VALID,131,VALID,1.35195,
2016-02-09, 16:34:04,VALID,916.154,VALID,0,VALID,104,VALID,129.789,VALID,22.4679,VALID,131,VALID,2.12695,
2016-02-09, 16:35:04,VALID,916.143,VALID,0,VALID,104,VALID,121.946,VALID,22.4696,VALID,152,VALID,0.872656,
2016-02-09, 16:36:04,VALID,916.163,VALID,0,VALID,104,VALID,114.747,VALID,22.4908,VALID,157,VALID,0.696484,
2016-02-09, 16:37:04,VALID,916.182,VALID,0,VALID,104,VALID,106.259,VALID,22.4713,VALID,140,VALID,0.986719,
2016-02-09, 16:59:04,VALID,916.392,VALID,0,VALID,104,VALID,121.194,VALID,21.7103,VALID,138,VALID,0,
2016-02-09, 17:00:04,VALID,916.365,VALID,0,VALID,104,VALID,126.136,VALID,21.6908,VALID,119,VALID,0,
2016-02-09, 17:01:04,VALID,916.351,VALID,0,VALID,104,VALID,130.434,VALID,21.7087,VALID,120,VALID,0,
2016-02-09, 17:02:04,VALID,916.339,VALID,0,VALID,104,VALID,133.549,VALID,21.7298,VALID,139,VALID,0.0386719,
2016-02-09, 17:03:04,VALID,916.354,VALID,0.2,VALID,104,VALID,135.913,VALID,21.7282,VALID,123,VALID,0,
2016-02-09, 17:04:04,VALID,916.35,VALID,0,VALID,104,VALID,138.814,VALID,21.8274,VALID,117,VALID,0,
2016-02-09, 17:05:04,VALID,916.342,VALID,0,VALID,104,VALID,142.145,VALID,21.9038,VALID,109,VALID,0,
2016-02-09, 17:06:04,VALID,916.327,VALID,0,VALID,104,VALID,146.335,VALID,21.9216,VALID,109,VALID,0,
2016-02-09, 17:07:04,VALID,916.326,VALID,0,VALID,104,VALID,150.74,VALID,21.9428,VALID,104,VALID,0.992969,
2016-02-09, 17:08:04,VALID,916.315,VALID,0,VALID,104,VALID,157.294,VALID,21.9428,VALID,98,VALID,0,
2016-02-09, 17:09:04,VALID,916.306,VALID,0,VALID,104,VALID,187.055,VALID,22.0013,VALID,91,VALID,0.00117188,
2016-02-09, 17:10:04,VALID,916.32,VALID,0,VALID,104,VALID,173.625,VALID,22.0403,VALID,107,VALID,0.588281,
2016-02-09, 17:11:04,VALID,916.285,VALID,0,VALID,104,VALID,170.831,VALID,22.0794,VALID,106,VALID,0.769531,
2016-02-09, 17:12:04,VALID,916.263,VALID,0,VALID,104,VALID,162.451,VALID,22.0989,VALID,73,VALID,0.964453,
2016-02-09, 17:13:04,VALID,916.265,VALID,0,VALID,104,VALID,156.542,VALID,22.2176,VALID,84,VALID,0,
2016-02-09, 17:14:04,VALID,916.311,VALID,0,VALID,104,VALID,151.922,VALID,22.1981,VALID,109,VALID,0.0992187,
2016-02-09, 17:15:04,VALID,916.323,VALID,0,VALID,104,VALID,146.227,VALID,22.1574,VALID,114,VALID,0.652734,
2016-02-09, 17:16:04,VALID,916.352,VALID,0,VALID,104,VALID,143.004,VALID,22.2991,VALID,136,VALID,0,
2016-02-09, 17:17:04,VALID,916.369,VALID,0,VALID,104,VALID,141.07,VALID,22.2583,VALID,133,VALID,0,
2016-02-09, 17:18:04,VALID,916.42,VALID,0,VALID,104,VALID,147.302,VALID,22.2583,VALID,136,VALID,0,
2016-02-09, 17:19:04,VALID,916.459,VALID,0,VALID,104,VALID,138.707,VALID,22.3152,VALID,136,VALID,0,
2016-02-09, 17:20:04,VALID,916.488,VALID,0,VALID,104,VALID,129.252,VALID,22.3737,VALID,152,VALID,0,
2016-02-09, 17:21:04,VALID,916.462,VALID,0,VALID,104,VALID,126.351,VALID,22.2533,VALID,169,VALID,0,
2016-02-09, 17:22:04,VALID,916.487,VALID,0,VALID,104,VALID,125.599,VALID,22.2354,VALID,166,VALID,0.00429688,
2016-02-09, 17:23:04,VALID,916.496,VALID,0,VALID,104,VALID,123.557,VALID,22.26,VALID,173,VALID,0,
2016-02-09, 17:24:04,VALID,916.498,VALID,0,VALID,104,VALID,120.334,VALID,22.2796,VALID,164,VALID,0,
2016-02-09, 17:25:04,VALID,916.526,VALID,0,VALID,104,VALID,113.136,VALID,22.2583,VALID,146,VALID,0,
